Tracking 19193 objects as of 22-Jun-2018
HD Live streaming from Space Station
objects crossing your sky now

SL-14 R/B

Track SL-14 R/B now!
10-day predictions
SL-14 R/B is classified as:


NORAD ID: 17912
Int'l Code: 1987-038B
Perigee: 611.8 km
Apogee: 642.4 km
Inclination: 82.5 °
Period: 97.1 minutes
Semi major axis: 6998 km
RCS: 4.8281 m2 (large)
Launch date: April 27, 1987
Source: Commonwealth of Independent States (former USSR) (CIS)
Launch site: PLESETSK MISSILE AND SPACE COMPLEX (PKMTR)

Note: This is a ROCKET BODY
aabbcc
Your satellite tracking list
Your tracking list is empty




NASA's NSSDC Master Catalog

Two Line Element Set (TLE):
1 17912U 87038B   18172.78902172 +.00000060 +00000-0 +44176-5 0  9994
2 17912 082.5030 063.5867 0021839 093.2759 267.0955 14.82978405661424
Source of the keplerian elements: AFSPC